| time (UTC) | temp F | wind direction | speed MPH | gust MPH | rain 1hr in | rain 24hr in | rain mn in | humidity % | barometer mb |
| 20260505130135 | 85 | 0.0 | 0.0 | 0.00 | 0.00 | 0.00 | 43 | 1010.2 | |
| 20260505124600 | 85 | 0.0 | 0.0 | 0.00 | 0.00 | 0.00 | 42 | 1010.9 | |
| 20260505123025 | 85 | 0.0 | 0.0 | 0.00 | 0.00 | 0.00 | 42 | 1010.1 | |
| 20260505121450 | 85 | 0.0 | 0.0 | 0.00 | 0.00 | 0.00 | 43 | 1010.1 | |
| 20260505115859 | 81 | 0.0 | 0.0 | 0.00 | 0.00 | 0.00 | 47 | 1010.3 | |
| 20260505114324 | 83 | 0.0 | 0.0 | 0.00 | 0.00 | 0.00 | 46 | 1010.2 | |
| 20260505112749 | 87 | 0.0 | 0.0 | 0.00 | 0.00 | 0.00 | 41 | 1009.7 | |
| 20260505111214 | 87 | 0.0 | 0.0 | 0.00 | 0.00 | 0.00 | 41 | 1011.1 | |
| 20260505100954 | 90 | 0.0 | 0.0 | 0.00 | 0.00 | 0.00 | 36 | 1009.6 | |
| 20260505095419 | 90 | 0.0 | 0.0 | 0.00 | 0.00 | 0.00 | 36 | 1008.3 | |
| 20260505093828 | 90 | 0.0 | 0.0 | 0.00 | 0.00 | 0.00 | 35 | 1008.9 | |
| 20260505092253 | 89 | 0.0 | 0.0 | 0.00 | 0.00 | 0.00 | 36 | 1009.1 | |
| 20260505090717 | 91 | 0.0 | 0.0 | 0.00 | 0.00 | 0.00 | 34 | 1007.8 | |
| 20260505085148 | 92 | 0.0 | 0.0 | 0.00 | 0.00 | 0.00 | 34 | 1007.4 | |
| 20260505083552 | 90 | 0.0 | 0.0 | 0.00 | 0.00 | 0.00 | 34 | 1007.6 | |
| 20260505082016 | 90 | 0.0 | 0.0 | 0.00 | 0.00 | 0.00 | 35 | 1007.9 | |
| 20260505080441 | 90 | 0.0 | 0.0 | 0.00 | 0.00 | 0.00 | 35 | 1008.0 | |
| 20260505074906 | 90 | 0.0 | 0.0 | 0.00 | 0.00 | 0.00 | 35 | 1008.5 | |
| 20260505073331 | 89 | 0.0 | 0.0 | 0.00 | 0.00 | 0.00 | 36 | 1009.0 | |
| 20260505071756 | 89 | 0.0 | 0.0 | 0.00 | 0.00 | 0.00 | 36 | 1008.5 | |
| 20260505070221 | 89 | 0.0 | 0.0 | 0.00 | 0.00 | 0.00 | 36 | 1008.6 | |
| 20260505064646 | 90 | 0.0 | 0.0 | 0.00 | 0.00 | 0.00 | 35 | 1008.1 | |
| 20260505063055 | 89 | 0.0 | 0.0 | 0.00 | 0.00 | 0.00 | 37 | 1009.3 | |
| 20260505061520 | 88 | 0.0 | 0.0 | 0.00 | 0.00 | 0.00 | 37 | 1009.0 | |
| 20260505055945 | 87 | 0.0 | 0.0 | 0.00 | 0.00 | 0.00 | 39 | 1009.2 | |
| 20260505054410 | 87 | 0.0 | 0.0 | 0.00 | 0.00 | 0.00 | 39 | 1008.8 | |
| 20260505052835 | 88 | 0.0 | 0.0 | 0.00 | 0.00 | 0.00 | 39 | 1009.7 | |
| 20260505051300 | 89 | 0.0 | 0.0 | 0.00 | 0.00 | 0.00 | 38 | 1010.3 | |
| 20260505041040 | 86 | 0.0 | 0.0 | 0.00 | 0.00 | 0.00 | 40 | 1012.9 | |
| 20260505035505 | 86 | 0.0 | 0.0 | 0.00 | 0.00 | 0.00 | 40 | 1012.3 | |
| 20260505033930 | 89 | 0.0 | 0.0 | 0.00 | 0.00 | 0.00 | 38 | 1012.4 | |
| 20260505032355 | 89 | 0.0 | 0.0 | 0.00 | 0.00 | 0.00 | 37 | 1012.7 | |
| 20260505030820 | 89 | 0.0 | 0.0 | 0.00 | 0.00 | 0.00 | 37 | 1012.5 | |
| 20260505025245 | 88 | 0.0 | 0.0 | 0.00 | 0.00 | 0.00 | 38 | 1012.5 | |
| 20260505023710 | 88 | 0.0 | 0.0 | 0.00 | 0.00 | 0.00 | 38 | 1012.6 | |
| 20260505022135 | 87 | 0.0 | 0.0 | 0.00 | 0.00 | 0.00 | 39 | 1012.6 | |
| 20260505020600 | 86 | 0.0 | 0.0 | 0.00 | 0.00 | 0.00 | 40 | 1012.5 | |
| 20260505015025 | 86 | 0.0 | 0.0 | 0.00 | 0.00 | 0.00 | 40 | 1012.3 | |
| 20260505013450 | 86 | 0.0 | 0.0 | 0.00 | 0.00 | 0.00 | 40 | 1012.3 | |
| 20260505011915 | 85 | 0.0 | 0.0 | 0.00 | 0.00 | 0.00 | 40 | 1011.6 | |
| 20260505010339 | 85 | 0.0 | 0.0 | 0.00 | 0.00 | 0.00 | 41 | 1011.5 | |
| 20260505004804 | 85 | 0.0 | 0.0 | 0.00 | 0.00 | 0.00 | 40 | 1011.1 | |
| 20260505003230 | 86 | 0.0 | 0.0 | 0.00 | 0.00 | 0.00 | 40 | 1010.9 | |
| 20260505001638 | 85 | 0.0 | 0.0 | 0.00 | 0.00 | 0.00 | 40 | 1010.3 | |
| 20260505000103 | 85 | 0.0 | 0.0 | 0.00 | 0.00 | 0.00 | 39 | 1010.2 | |
| 20260504234528 | 85 | 0.0 | 0.0 | 0.00 | 0.00 | 0.00 | 39 | 1010.1 | |
| 20260504232953 | 85 | 0.0 | 0.0 | 0.00 | 0.00 | 0.00 | 39 | 1010.5 | |
| 20260504231418 | 85 | 0.0 | 0.0 | 0.00 | 0.00 | 0.00 | 39 | 1009.9 | |
| 20260504225843 | 85 | 0.0 | 0.0 | 0.00 | 0.00 | 0.00 | 39 | 1009.4 | |
| 20260504224308 | 85 | 0.0 | 0.0 | 0.00 | 0.00 | 0.00 | 39 | 1009.2 | |
| 20260504222733 | 85 | 0.0 | 0.0 | 0.00 | 0.00 | 0.00 | 39 | 1009.9 | |
| 20260504221158 | 86 | 0.0 | 0.0 | 0.00 | 0.00 | 0.00 | 39 | 1009.5 | |
| 20260504215551 | 86 | 0.0 | 0.0 | 0.00 | 0.00 | 0.00 | 39 | 1009.8 | |
| 20260504214016 | 86 | 0.0 | 0.0 | 0.00 | 0.00 | 0.00 | 39 | 1010.4 | |
| 20260504212441 | 86 | 0.0 | 0.0 | 0.00 | 0.00 | 0.00 | 39 | 1010.3 | |
| 20260504210906 | 86 | 0.0 | 0.0 | 0.00 | 0.00 | 0.00 | 39 | 1009.9 | |
| 20260504205331 | 86 | 0.0 | 0.0 | 0.00 | 0.00 | 0.00 | 39 | 1010.3 | |
| 20260504203756 | 86 | 0.0 | 0.0 | 0.00 | 0.00 | 0.00 | 39 | 1011.1 | |
| 20260504202221 | 86 | 0.0 | 0.0 | 0.00 | 0.00 | 0.00 | 39 | 1010.9 | |
| 20260504200646 | 86 | 0.0 | 0.0 | 0.00 | 0.00 | 0.00 | 40 | 1010.5 | |
| 20260504195111 | 86 | 0.0 | 0.0 | 0.00 | 0.00 | 0.00 | 40 | 1010.5 | |
| 20260504193536 | 86 | 0.0 | 0.0 | 0.00 | 0.00 | 0.00 | 40 | 1010.9 | |
| 20260504192001 | 86 | 0.0 | 0.0 | 0.00 | 0.00 | 0.00 | 40 | 1011.1 | |
| 20260504190426 | 86 | 0.0 | 0.0 | 0.00 | 0.00 | 0.00 | 40 | 1010.8 | |
| 20260504184851 | 86 | 0.0 | 0.0 | 0.00 | 0.00 | 0.00 | 40 | 1011.3 | |
| 20260504183316 | 86 | 0.0 | 0.0 | 0.00 | 0.00 | 0.00 | 39 | 1011.4 | |
| 20260504181725 | 86 | 0.0 | 0.0 | 0.00 | 0.00 | 0.00 | 40 | 1011.3 | |
| 20260504180150 | 86 | 0.0 | 0.0 | 0.00 | 0.00 | 0.00 | 39 | 1011.7 | |
| 20260504174615 | 85 | 0.0 | 0.0 | 0.00 | 0.00 | 0.00 | 40 | 1012.0 | |
| 20260504173040 | 85 | 0.0 | 0.0 | 0.00 | 0.00 | 0.00 | 40 | 1012.2 | |
| 20260504171510 | 85 | 0.0 | 0.0 | 0.00 | 0.00 | 0.00 | 40 | 1012.6 | |
| 20260504150952 | 83 | 0.0 | 0.0 | 0.00 | 0.00 | 0.00 | 43 | 1011.4 | |
| 20260504140700 | 83 | 0.0 | 0.0 | 0.00 | 0.00 | 0.00 | 44 | 1011.3 |